Wakefield, VA

11:12 PM EST on December 06, 2019 (GMT -0500)
Wakefield Municipal

Weather History for KAKQ - October, 2019

Change the Weather History Date:

Saturday, October 26, 2019

  Actual Average (KJGG) Record (KJGG)
Temperature  
Mean Temperature 66 °F -  
Max Temperature 78 °F 66 °F 111 °F (2007)
Min Temperature 55 °F 46 °F 27 °F (1952)
Cooling Degree Days 1    
Growing Degree Days 16 (Base 50)    
Moisture  
Dew Point 58 °F    
Average Humidity 81    
Maximum Humidity 97    
Minimum Humidity 52    
Precipitation  
Precipitation 0.00 in - - ()
Sea Level Pressure  
Sea Level Pressure 30.15 in    
Wind  
Wind Speed 2 mph (East)    
Max Wind Speed 7 mph    
Max Gust Speed -    
Visibility 8 miles    
Events      
Averages and records for this station are not official NWS values.
T = Trace of Precipitation, MM = Missing Value Source: NWS Daily Summary

Daily Weather History Graph

Daily Weather History Graph

Search for Another Location

Airport or City:

Astronomy

Oct. 26, 2019 Rise Set
Actual Time 7:25 AM EDT 6:17 PM EDT
Civil Twilight 6:59 AM EDT 6:44 PM EDT
Nautical Twilight 6:28 AM EDT 7:14 PM EDT
Astronomical Twilight 5:58 AM EDT 7:44 PM EDT
Moon 5:23 AM EDT (10/26) 5:48 PM EDT (10/26)
Length of Visible Light 11h 44m
Length of Day
10h 51m
Waning Crescent, 3% of the Moon is Illuminated
Oct 26
Waning Crescent
Oct 27
New
Nov 4
First Quarter
Nov 12
Full
Nov 19
Last Quarter

Hourly Weather History & Observations

Time (EDT) Temp. Dew Point Humidity Pressure Visibility Wind Dir Wind Speed Gust Speed Precip Events Conditions
12:54 AM 57.9 °F 55.9 °F 93% 30.20 in 5.0 mi Calm Calm - N/A   Clear
1:54 AM 59.0 °F 57.0 °F 93% 30.18 in 7.0 mi Calm Calm - N/A   Clear
2:54 AM 59.0 °F 57.0 °F 93% 30.17 in 10.0 mi Calm Calm - N/A   Clear
3:54 AM 59.0 °F 57.0 °F 93% 30.16 in 5.0 mi Calm Calm - N/A   Clear
4:16 AM 57.9 °F 55.9 °F 93% 30.16 in 1.8 mi Calm Calm - N/A   Clear
4:35 AM 57.9 °F 55.9 °F 93% 30.17 in 3.0 mi Calm Calm - N/A   Clear
4:54 AM 57.9 °F 55.9 °F 93% 30.17 in 6.0 mi Calm Calm - N/A   Clear
5:54 AM 57.9 °F 55.9 °F 93% 30.18 in 5.0 mi Calm Calm - N/A   Clear
6:32 AM 55.9 °F 55.0 °F 97% 30.18 in 4.0 mi Calm Calm - N/A   Scattered Clouds
6:54 AM 57.0 °F 55.0 °F 93% 30.18 in 5.0 mi Calm Calm - N/A   Scattered Clouds
7:50 AM 57.2 °F 55.4 °F 94% 30.18 in 4.0 mi Calm Calm - N/A   Clear
7:54 AM 57.0 °F 55.0 °F 93% 30.19 in 4.0 mi Calm Calm - N/A   Clear
8:54 AM 62.1 °F 57.9 °F 86% 30.20 in 8.0 mi Calm Calm - N/A   Clear
9:54 AM 64.0 °F 59.0 °F 84% 30.20 in 10.0 mi East 3.5 mph - N/A   Clear
10:54 AM 68.0 °F 59.0 °F 73% 30.21 in 10.0 mi East 5.8 mph - N/A   Clear
11:54 AM 73.0 °F 60.1 °F 64% 30.18 in 10.0 mi Variable 4.6 mph - N/A   Clear
12:54 PM 75.0 °F 59.0 °F 57% 30.16 in 10.0 mi SSE 5.8 mph - N/A   Partly Cloudy
1:54 PM 77.0 °F 57.9 °F 52% 30.13 in 10.0 mi East 5.8 mph - N/A   Partly Cloudy
2:54 PM 75.0 °F 57.0 °F 53% 30.12 in 10.0 mi East 4.6 mph - N/A   Mostly Cloudy
3:54 PM 73.9 °F 59.0 °F 59% 30.12 in 10.0 mi East 6.9 mph - N/A   Overcast
4:54 PM 72.0 °F 60.1 °F 66% 30.12 in 10.0 mi East 5.8 mph - N/A   Scattered Clouds
5:54 PM 69.1 °F 59.0 °F 70% 30.11 in 10.0 mi East 5.8 mph - N/A   Partly Cloudy
6:54 PM 64.9 °F 59.0 °F 81% 30.12 in 10.0 mi East 4.6 mph - N/A   Partly Cloudy
7:54 PM 66.0 °F 59.0 °F 78% 30.12 in 10.0 mi Variable 3.5 mph - N/A   Overcast
8:54 PM 66.0 °F 59.0 °F 78% 30.12 in 10.0 mi East 3.5 mph - N/A   Overcast
10:54 PM 64.9 °F 61.0 °F 87% 30.08 in 10.0 mi East 3.5 mph - N/A   Clear
11:54 PM 66.0 °F 61.0 °F 84% 30.06 in 10.0 mi East 4.6 mph - N/A   Clear